"Pseudo-MPEC" for P22nm14

Created 2026 Jun 15 0:35:10 UT using Find_Orb

Click here for an explanation of pseudo-MPECs

 
 Astrometry: 
     P22nm14*0C2026 06 11.34219316 30 13.625+54 10 38.95   ~6BAZ 21.98wXNEOCPF52
     P22nm14 0C2026 06 11.35572216 30 10.973+54 11 01.48   ~6BAZ 22.09wXNEOCPF52
     P22nm14 0C2026 06 11.36927116 30 08.393+54 11 23.83   ~6BAZ 21.99wXNEOCPF52
     P22nm14 KC2026 06 11.44466116 29 53.292+54 13 23.49   ~6BBK 21.9 GWNEOCPH01
     P22nm14 KC2026 06 11.45205016 29 51.868+54 13 35.43   ~6BBK 22.1 GWNEOCPH01
     P22nm14 1C2026 06 12.17916716 27 34.090+54 33 18.50   ~6C55       VNEOCPI52
     P22nm14 1C2026 06 12.18698616 27 32.476+54 33 31.50   ~6C55 21.37GVNEOCPI52
     P22nm14 1C2026 06 12.19162616 27 31.583+54 33 37.87   ~6C55 20.98GVNEOCPI52
     P22nm14 KC2026 06 13.16042216 24 23.19 +54 59 09.2    ~6D55 22.0 GVNEOCPH21
     P22nm14 KC2026 06 13.16601616 24 22.10 +54 59 18.0    ~6D55 22.1 GVNEOCPH21
     P22nm14 KC2026 06 13.17161016 24 21.03 +54 59 26.5    ~6D55 21.7 GVNEOCPH21
     P22nm14 KC2026 06 13.17813616 24 19.69 +54 59 36.5    ~6D55 21.3 GVNEOCPH21

Station data:
(F52) Pan-STARRS 2, Haleakala  (N20.707382 W156.255910)  US/Hawaii.
   Observers J. Herman, T. Lowe, P. Minguez, A. Schultz, I. Smith. Measurers
   K. Chambers, T. de Boer, J. Fairlamb, H. Gao, M. Huber, C.-C. Lin, E.
   Magnier, Y. Ramanjooloo, R. Wainscoat, R. Weryk. 1.8-m Ritchey-Chrétien +
   CCD.
(H01) Magdalena Ridge Observatory, Socorro  (N33.984833 W107.189333)  US/New
   Mexico.  Observers W. H. Ryan, E. V. Ryan. Measurer W. H. Ryan. 2.4-m
   f/8.9 reflector + CCD.
(H21) Astronomical Research Observatory, Westfield  (N39.483054 W87.968270)
   US/Illinois.  Observer R. Holmes. Measurers S. Foglia, L. Buzzi, T.
   Linder, R. Holmes. 0.40-m f/5.32 astrograph + CCD.
(I52) Steward Observatory, Mt. Lemmon Station  (N32.442570 W110.788920)
   US/Arizona. Measurers T. Beuden, V. F. Carvajal, D. Fay, J. B. Fazekas, D.
   C. Fuls, A. R. Gibbs, A. D. Grauer, H. Gröller, J. K. Hogan, R. A.
   Kowalski, S. M. Larson, G. J. Leonard, D. Rankin, R. L. Seaman, F. C.
   Shelly, K. W. Wierzchoś. 1.0-m prime focus + CCD.

Orbital elements:  P22nm14
   Perihelion 2026 Sep 29.562827 +/- 2.6 TT = 13:30:28.2 (JD 2461313.062827)
Epoch 2026 Jun 13.0 TT = JDT 2461204.5   Earth MOID: 0.3211   Ve: 0.0509
M 333.392884778 +/- 3.5             (J2000 ecliptic)             AutoNEOCP
n   0.245084951 +/- 0.0365          Peri.  168.090830 +/- 3.3
a   2.528860961 +/- 0.251           Node   219.326769 +/- 2.6
e   0.73766009 +/- 0.0163           Incl.   61.068362 +/- 2.8
P   4.02149                H 18.84  G  0.15   U 10.5
q 0.663421150 +/- 0.0363    Q 4.394300772 +/- 0.473
From 12 observations 2026 June 11-13 (44.1 hr); mean residual 0".32
Residuals in arcseconds: 
260611 F52  .12+  .01+    260611 H01  .42-  .17-    260613 H21  .22-  .24+    
260611 F52  .16-  .10+    260612 I52  .15+  .14-    260613 H21  .04+  .30+    
260611 F52  .24+  .03+    260612 I52  .55-  .18+    260613 H21  .46+  .08+    
260611 H01  .33-  .18-    260612 I52  .40-  .97-    260613 H21  .18+  .10-    

Ephemerides (geocentric):
Date (UTC) HH   RA             Dec           delta  r     elong  mag " sig PA
---- --------  ------------   ------------  ------ ------ -----  --- --------
2026 06 15 01  16 18 07.548   +55 46 19.16  1.2263 1.7152  99.4 21.9 1.90  27
2026 06 15 02  16 17 59.089   +55 47 19.77  1.2263 1.7148  99.4 21.9 1.96  27
2026 06 15 03  16 17 50.625   +55 48 20.28  1.2262 1.7144  99.3 21.9 2.02  26
2026 06 15 04  16 17 42.154   +55 49 20.70  1.2261 1.7139  99.3 21.9 2.07  26
2026 06 15 05  16 17 33.678   +55 50 21.02  1.2261 1.7135  99.3 21.9 2.13  26
2026 06 15 06  16 17 25.196   +55 51 21.26  1.2260 1.7130  99.2 21.9 2.19  26
2026 06 15 07  16 17 16.708   +55 52 21.40  1.2259 1.7126  99.2 21.9 2.26  26
2026 06 15 08  16 17 08.214   +55 53 21.44  1.2259 1.7122  99.2 21.9 2.32  26
2026 06 15 09  16 16 59.714   +55 54 21.40  1.2258 1.7117  99.1 21.9 2.38  26
2026 06 15 10  16 16 51.208   +55 55 21.26  1.2257 1.7113  99.1 21.9 2.45  26
2026 06 15 11  16 16 42.697   +55 56 21.03  1.2257 1.7108  99.1 21.9 2.51  26
2026 06 15 12  16 16 34.179   +55 57 20.71  1.2256 1.7104  99.0 21.9 2.58  26
2026 06 15 13  16 16 25.656   +55 58 20.29  1.2255 1.7099  99.0 21.9 2.64  26
2026 06 15 14  16 16 17.127   +55 59 19.78  1.2255 1.7095  99.0 21.9 2.71  26
2026 06 15 15  16 16 08.593   +56 00 19.18  1.2254 1.7091  99.0 21.9 2.78  26
2026 06 15 16  16 16 00.052   +56 01 18.48  1.2253 1.7086  98.9 21.9 2.84  26
2026 06 15 17  16 15 51.506   +56 02 17.69  1.2253 1.7082  98.9 21.9 2.91  26
2026 06 15 18  16 15 42.955   +56 03 16.81  1.2252 1.7077  98.9 21.9 2.98  26
2026 06 15 19  16 15 34.397   +56 04 15.83  1.2251 1.7073  98.8 21.9 3.05  26
2026 06 15 20  16 15 25.834   +56 05 14.76  1.2251 1.7068  98.8 21.9 3.13  26
2026 06 15 21  16 15 17.265   +56 06 13.60  1.2250 1.7064  98.8 21.9 3.20  26
2026 06 15 22  16 15 08.690   +56 07 12.35  1.2249 1.7060  98.7 21.9 3.27  26
2026 06 15 23  16 15 00.110   +56 08 11.00  1.2249 1.7055  98.7 21.9 3.35  26
2026 06 16 00  16 14 51.524   +56 09 09.56  1.2248 1.7051  98.7 21.9 3.42  26
2026 06 16 01  16 14 42.933   +56 10 08.02  1.2247 1.7046  98.6 21.9 3.50  26
2026 06 16 02  16 14 34.336   +56 11 06.39  1.2247 1.7042  98.6 21.9 3.57  26
2026 06 16 03  16 14 25.733   +56 12 04.67  1.2246 1.7038  98.6 21.9 3.65  26
2026 06 16 04  16 14 17.125   +56 13 02.85  1.2245 1.7033  98.5 21.9 3.73  25
2026 06 16 05  16 14 08.511   +56 14 00.94  1.2245 1.7029  98.5 21.9 3.81  25
2026 06 16 06  16 13 59.892   +56 14 58.94  1.2244 1.7024  98.5 21.9 3.88  25
2026 06 16 07  16 13 51.267   +56 15 56.84  1.2244 1.7020  98.5 21.9 3.97  25
2026 06 16 08  16 13 42.637   +56 16 54.65  1.2243 1.7015  98.4 21.9 4.05  25
2026 06 16 09  16 13 34.001   +56 17 52.37  1.2242 1.7011  98.4 21.9 4.13  25
2026 06 16 10  16 13 25.360   +56 18 49.99  1.2242 1.7007  98.4 21.9 4.21  25
2026 06 16 11  16 13 16.713   +56 19 47.52  1.2241 1.7002  98.3 21.9 4.29  25
2026 06 16 12  16 13 08.061   +56 20 44.95  1.2240 1.6998  98.3 21.9 4.38  25
2026 06 16 13  16 12 59.404   +56 21 42.29  1.2240 1.6993  98.3 21.9 4.46  25
2026 06 16 14  16 12 50.741   +56 22 39.54  1.2239 1.6989  98.2 21.9 4.55  25
2026 06 16 15  16 12 42.072   +56 23 36.70  1.2239 1.6984  98.2 21.9 4.63  25
2026 06 16 16  16 12 33.398   +56 24 33.75  1.2238 1.6980  98.2 21.9 4.72  25
2026 06 16 17  16 12 24.719   +56 25 30.72  1.2237 1.6975  98.1 21.9 4.81  25
2026 06 16 18  16 12 16.035   +56 26 27.59  1.2237 1.6971  98.1 21.9 4.90  25
2026 06 16 19  16 12 07.345   +56 27 24.37  1.2236 1.6967  98.1 21.9 4.99  25
2026 06 16 20  16 11 58.650   +56 28 21.05  1.2235 1.6962  98.0 21.9 5.07  25
2026 06 16 21  16 11 49.949   +56 29 17.64  1.2235 1.6958  98.0 21.9 5.17  25
2026 06 16 22  16 11 41.243   +56 30 14.14  1.2234 1.6953  98.0 21.9 5.26  25
2026 06 16 23  16 11 32.532   +56 31 10.54  1.2234 1.6949  98.0 21.9 5.35  25
2026 06 17 00  16 11 23.816   +56 32 06.85  1.2233 1.6944  97.9 21.9 5.44  25